Location: Le Domaine
(47.0333°N, 76.5361°W)
Time: 23:19:41
(UTC-05:00)

Explorer 11/Cluster Stage 4 - Pass Details

Date: 17 November 2019
Orbit: 467 x 1259 km, 28.8° (Epoch: 09 December)

Event Time Altitude Azimuth Distance (km) Brightness Sun altitude
Rises 00:03:05 0° 245° (WSW) 3,912 - -61.8°
Reaches altitude 10° 00:06:52 10° 227° (SW) 3,069 - -61.7°
Maximum altitude 00:11:32 17° 190° (S) 2,657 - -61.6°
Drops below altitude 10° 00:16:25 10° 153° (SSE) 3,222 - -61.4°
Sets 00:20:33 0° 135° (SE) 4,191 - -61.2°
